TimeEDT,TemperatureF,Dew PointF,Humidity,Sea Level PressureIn,VisibilityMPH,Wind Direction,Wind SpeedMPH,Gust SpeedMPH,PrecipitationIn,Events,Conditions,WindDirDegrees,DateUTC
12:53 AM,39.9,27.0,60,30.19,10.0,SW,3.5,-,N/A,,Partly Cloudy,220,2013-03-30 04:53:00
1:53 AM,37.0,28.0,70,30.19,10.0,Calm,Calm,-,N/A,,Partly Cloudy,0,2013-03-30 05:53:00
2:53 AM,34.0,27.0,75,30.19,10.0,NNE,3.5,-,N/A,,Clear,30,2013-03-30 06:53:00
3:53 AM,37.0,27.0,67,30.18,10.0,Calm,Calm,-,N/A,,Mostly Cloudy,0,2013-03-30 07:53:00
4:53 AM,34.0,26.1,73,30.18,10.0,Calm,Calm,-,N/A,,Mostly Cloudy,0,2013-03-30 08:53:00
5:53 AM,35.1,28.0,76,30.19,10.0,WSW,3.5,-,N/A,,Overcast,240,2013-03-30 09:53:00
6:53 AM,34.0,28.0,79,30.21,10.0,Calm,Calm,-,N/A,,Overcast,0,2013-03-30 10:53:00
7:53 AM,36.0,28.9,76,30.22,10.0,Calm,Calm,-,N/A,,Mostly Cloudy,0,2013-03-30 11:53:00
8:53 AM,43.0,30.9,62,30.24,10.0,Calm,Calm,-,N/A,,Partly Cloudy,0,2013-03-30 12:53:00
9:53 AM,51.1,30.0,44,30.24,10.0,Calm,Calm,-,N/A,,Clear,0,2013-03-30 13:53:00
10:53 AM,57.0,24.1,28,30.22,10.0,East,5.8,-,N/A,,Clear,80,2013-03-30 14:53:00
11:53 AM,60.1,28.0,30,30.21,10.0,NNW,3.5,-,N/A,,Clear,340,2013-03-30 15:53:00
12:53 PM,60.1,26.1,27,30.17,10.0,Calm,Calm,-,N/A,,Clear,0,2013-03-30 16:53:00
1:53 PM,62.1,27.0,26,30.15,10.0,West,5.8,-,N/A,,Clear,280,2013-03-30 17:53:00
2:53 PM,64.0,27.0,25,30.12,10.0,NW,5.8,-,N/A,,Clear,320,2013-03-30 18:53:00
3:53 PM,64.9,26.1,23,30.09,10.0,North,3.5,-,N/A,,Clear,10,2013-03-30 19:53:00
4:53 PM,64.9,26.1,23,30.07,10.0,WSW,5.8,-,N/A,,Clear,250,2013-03-30 20:53:00
5:53 PM,64.9,25.0,22,30.06,10.0,Variable,4.6,-,N/A,,Clear,0,2013-03-30 21:53:00
6:53 PM,61.0,28.0,29,30.07,10.0,WSW,4.6,-,N/A,,Clear,240,2013-03-30 22:53:00
7:53 PM,53.1,28.9,40,30.08,10.0,Calm,Calm,-,N/A,,Clear,0,2013-03-30 23:53:00
8:53 PM,51.1,32.0,48,30.09,10.0,Calm,Calm,-,N/A,,Clear,0,2013-03-31 00:53:00
9:53 PM,50.0,32.0,50,30.08,10.0,East,3.5,-,N/A,,Clear,100,2013-03-31 01:53:00
10:53 PM,48.9,32.0,52,30.07,10.0,East,5.8,-,N/A,,Clear,80,2013-03-31 02:53:00
11:53 PM,46.9,33.1,59,30.06,10.0,Calm,Calm,-,N/A,,Clear,0,2013-03-31 03:53:00